Location: Unspecified
(35.7250°N, 0.0000°E)
Time: 04:23:29
(UTC+00:00)

Vanguard 1 - Pass Details

Date: 04 July 2019
Orbit: 653 x 3830 km, 34.3° (Epoch: 22 July)

Event Time Altitude Azimuth Distance (km) Brightness Sun altitude
Rises 02:45:34 0° 274° (W) 7,959 14.4 -20.1°
Reaches altitude 10° 02:51:14 10° 274° (W) 6,819 14.0 -19.3°
Maximum altitude 03:12:55 82° 191° (S) 2,750 12.2 -16.3°
Drops below altitude 10° 03:25:10 10° 105° (ESE) 4,166 13.7 -14.6°
Sets 03:27:45 0° 105° (ESE) 4,844 14.1 -14.2°
